Location: Audinghen
(50.8518°N, 1.6129°E)
Time: 17:52:33
(UTC+00:00)

Cosmos 2082 - Pass Details

Date: 07 August 2020
Orbit: 833 x 855 km, 71.0° (Epoch: 25 September)

Event Time Altitude Azimuth Distance (km) Brightness Sun altitude
Exits shadow 01:52:34 22° 167° (SSE) 1,730 4.9 -18.4°
Maximum altitude 01:55:41 42° 109° (ESE) 1,170 4.5 -18.2°
Drops below altitude 10° 02:00:56 10° 40° (NE) 2,454 7.4 -17.7°
Sets 02:03:29 0° 34° (NE) 3,392 8.6 -17.5°
